Data No.,UTC Date,UTC Time,Latitude,Longitude,Course(deg),Sal(psu)
110,2012/2/28,9:34:00,00-12.5300N,118-00.0300E,64,31.7923
111,2012/2/28,9:35:00,00-12.6300N,118-00.2300E,64,31.7986
112,2012/2/28,9:36:00,00-12.7200N,118-00.4300E,63,31.799
113,2012/2/28,9:37:00,00-12.8200N,118-00.6300E,64,31.8031
114,2012/2/28,9:38:00,00-12.9100N,118-00.8200E,63,31.8087
115,2012/2/28,9:39:00,00-13.0100N,118-01.0200E,64,31.8126
116,2012/2/28,9:40:00,00-13.1000N,118-01.2100E,64,31.8142
117,2012/2/28,9:41:00,00-13.2000N,118-01.4100E,64,31.8131
118,2012/2/28,9:42:00,00-13.3000N,118-01.6100E,63,31.8188
119,2012/2/28,9:43:00,00-13.3900N,118-01.8000E,64,31.8208
120,2012/2/28,9:44:00,00-13.4900N,118-02.0000E,63,31.8187
121,2012/2/28,9:45:00,00-13.5900N,118-02.2000E,63,31.8197
122,2012/2/28,9:46:00,00-13.6900N,118-02.3900E,64,31.8191
123,2012/2/28,9:47:00,00-13.7900N,118-02.6000E,64,31.8167
124,2012/2/28,9:48:00,00-13.8800N,118-02.7900E,64,31.814
125,2012/2/28,9:49:00,00-13.9800N,118-02.9900E,64,31.8151
126,2012/2/28,9:50:00,00-14.0800N,118-03.2000E,63,31.8183
127,2012/2/28,9:51:00,00-14.1800N,118-03.4000E,63,31.8206
128,2012/2/28,9:52:00,00-14.2800N,118-03.6000E,63,31.8231
129,2012/2/28,9:53:00,00-14.3800N,118-03.8000E,63,31.8273
130,2012/2/28,9:54:00,00-14.4800N,118-03.9900E,63,31.8309
131,2012/2/28,9:55:00,00-14.5800N,118-04.1900E,63,31.833
132,2012/2/28,9:56:00,00-14.6800N,118-04.4100E,63,31.8361
133,2012/2/28,9:57:00,00-14.7800N,118-04.6000E,63,31.83
134,2012/2/28,9:58:00,00-14.8800N,118-04.7900E,62,31.833
135,2012/2/28,9:59:00,00-14.9800N,118-04.9900E,63,31.8539
136,2012/2/28,10:00:00,00-15.0800N,118-05.1900E,63,31.871
137,2012/2/28,10:01:00,00-15.1800N,118-05.3800E,63,31.8943
138,2012/2/28,10:02:00,00-15.2800N,118-05.5900E,64,31.9118
139,2012/2/28,10:03:00,00-15.3700N,118-05.7800E,64,31.9285
140,2012/2/28,10:04:00,00-15.4700N,118-05.9800E,64,31.9423
141,2012/2/28,10:05:00,00-15.5600N,118-06.1800E,64,31.9472
142,2012/2/28,10:06:00,00-15.6600N,118-06.3800E,63,31.9468
143,2012/2/28,10:07:00,00-15.7600N,118-06.5700E,63,31.9565
144,2012/2/28,10:08:00,00-15.8600N,118-06.7700E,63,31.967
145,2012/2/28,10:09:00,00-15.9500N,118-06.9600E,64,31.972
146,2012/2/28,10:10:00,00-16.0500N,118-07.1600E,64,31.9798
147,2012/2/28,10:11:00,00-16.1500N,118-07.3500E,64,31.9832
148,2012/2/28,10:12:00,00-16.2400N,118-07.5500E,64,31.9877
149,2012/2/28,10:13:00,00-16.3400N,118-07.7500E,64,32.0061
150,2012/2/28,10:14:00,00-16.4300N,118-07.9400E,64,32.0164
151,2012/2/28,10:15:00,00-16.5300N,118-08.1300E,63,32.0355
152,2012/2/28,10:16:00,00-16.6300N,118-08.3300E,63,32.0482
153,2012/2/28,10:17:00,00-16.7200N,118-08.5200E,63,32.0609
154,2012/2/28,10:18:00,00-16.8300N,118-08.7200E,62,32.0454
155,2012/2/28,10:19:00,00-16.9300N,118-08.9100E,62,32.0324
156,2012/2/28,10:20:00,00-17.0200N,118-09.1000E,63,32.0408
157,2012/2/28,10:21:00,00-17.1200N,118-09.2900E,63,32.063
158,2012/2/28,10:22:00,00-17.2100N,118-09.4800E,64,32.0898
159,2012/2/28,10:23:00,00-17.3000N,118-09.6800E,64,32.1083
160,2012/2/28,10:24:00,00-17.4000N,118-09.8700E,64,32.1101
161,2012/2/28,10:25:00,00-17.4900N,118-10.0600E,64,32.1166
162,2012/2/28,10:26:00,00-17.5900N,118-10.2600E,64,32.1218
163,2012/2/28,10:27:00,00-17.6800N,118-10.4500E,64,32.127
164,2012/2/28,10:28:00,00-17.7700N,118-10.6500E,65,32.1367
165,2012/2/28,10:29:00,00-17.8600N,118-10.8400E,64,32.1416
166,2012/2/28,10:30:00,00-17.9600N,118-11.0400E,64,32.1497
167,2012/2/28,10:31:00,00-18.0500N,118-11.2300E,64,32.1564
168,2012/2/28,10:32:00,00-18.1400N,118-11.4300E,64,32.1597
169,2012/2/28,10:33:00,00-18.2400N,118-11.6300E,64,32.1588
170,2012/2/28,10:34:00,00-18.3300N,118-11.8300E,64,32.158
171,2012/2/28,10:35:00,00-18.4300N,118-12.0200E,64,32.1636
172,2012/2/28,10:36:00,00-18.5200N,118-12.2200E,64,32.1594
173,2012/2/28,10:37:00,00-18.6200N,118-12.4200E,64,32.1575
174,2012/2/28,10:38:00,00-18.7100N,118-12.6100E,63,32.1568
175,2012/2/28,10:39:00,00-18.8100N,118-12.8000E,63,32.1606
176,2012/2/28,10:40:00,00-18.9200N,118-13.0200E,63,32.1614
177,2012/2/28,10:41:00,00-19.0100N,118-13.2100E,63,32.1622
178,2012/2/28,10:42:00,00-19.1100N,118-13.4100E,63,32.157
179,2012/2/28,10:43:00,00-19.2100N,118-13.6000E,63,32.1542
180,2012/2/28,10:44:00,00-19.3000N,118-13.7900E,63,32.1542
181,2012/2/28,10:45:00,00-19.4000N,118-13.9900E,64,32.158
182,2012/2/28,10:46:00,00-19.4900N,118-14.1800E,63,32.1616
183,2012/2/28,10:47:00,00-19.5900N,118-14.3800E,64,32.168
184,2012/2/28,10:48:00,00-19.6800N,118-14.5700E,64,32.1722
185,2012/2/28,10:49:00,00-19.7800N,118-14.7600E,63,32.1744
186,2012/2/28,10:50:00,00-19.8800N,118-14.9500E,62,32.1793
187,2012/2/28,10:51:00,00-19.9800N,118-15.1400E,61,32.1833
188,2012/2/28,10:52:00,00-20.0800N,118-15.3300E,61,32.1842
189,2012/2/28,10:53:00,00-20.1700N,118-15.5100E,62,32.1851
190,2012/2/28,10:54:00,00-20.2700N,118-15.7000E,62,32.1828
191,2012/2/28,10:55:00,00-20.3700N,118-15.8900E,62,32.1848
192,2012/2/28,10:56:00,00-20.4700N,118-16.0700E,62,32.1858
193,2012/2/28,10:57:00,00-20.5700N,118-16.2500E,62,32.1875
194,2012/2/28,10:58:00,00-20.6600N,118-16.4500E,63,32.1853
195,2012/2/28,10:59:00,00-20.7600N,118-16.6400E,63,32.186
196,2012/2/28,11:00:00,00-20.8600N,118-16.8300E,62,32.1889
197,2012/2/28,11:01:00,00-20.9600N,118-17.0300E,63,32.1947
198,2012/2/28,11:02:00,00-21.0500N,118-17.2200E,63,32.1996
199,2012/2/28,11:03:00,00-21.1500N,118-17.4100E,63,32.2055
200,2012/2/28,11:04:00,00-21.2400N,118-17.6000E,62,32.2092
201,2012/2/28,11:05:00,00-21.3400N,118-17.7900E,62,32.2099
202,2012/2/28,11:06:00,00-21.4400N,118-17.9700E,62,32.2142
203,2012/2/28,11:07:00,00-21.5400N,118-18.1600E,63,32.2212
204,2012/2/28,11:08:00,00-21.6300N,118-18.3500E,63,32.2293
205,2012/2/28,11:09:00,00-21.7200N,118-18.5400E,63,32.2337
206,2012/2/28,11:10:00,00-21.8200N,118-18.7200E,63,32.238
207,2012/2/28,11:11:00,00-21.9100N,118-18.9000E,62,32.2394
208,2012/2/28,11:12:00,00-22.0100N,118-19.0900E,62,32.2429
209,2012/2/28,11:13:00,00-22.1100N,118-19.2800E,63,32.2411
210,2012/2/28,11:14:00,00-22.2000N,118-19.4600E,63,32.2407
211,2012/2/28,11:15:00,00-22.3000N,118-19.6600E,63,32.2399
212,2012/2/28,11:16:00,00-22.3900N,118-19.8400E,63,32.2406
213,2012/2/28,11:17:00,00-22.4900N,118-20.0400E,63,32.2454
214,2012/2/28,11:18:00,00-22.5800N,118-20.2300E,63,32.2531
215,2012/2/28,11:19:00,00-22.6700N,118-20.4200E,64,32.2592
216,2012/2/28,11:20:00,00-22.7700N,118-20.6100E,64,32.2612
217,2012/2/28,11:21:00,00-22.8600N,118-20.8000E,64,32.2599
218,2012/2/28,11:22:00,00-22.9600N,118-21.0000E,64,32.261
219,2012/2/28,11:23:00,00-23.0400N,118-21.1900E,64,32.2621
220,2012/2/28,11:24:00,00-23.1500N,118-21.4000E,64,32.2577
221,2012/2/28,11:25:00,00-23.2400N,118-21.5900E,64,32.2529
222,2012/2/28,11:26:00,00-23.3300N,118-21.7800E,64,32.2482
223,2012/2/28,11:27:00,00-23.4200N,118-21.9800E,64,32.2474
224,2012/2/28,11:28:00,00-23.5200N,118-22.1700E,63,32.2488
225,2012/2/28,11:29:00,00-23.6100N,118-22.3600E,64,32.2511
226,2012/2/28,11:30:00,00-23.7000N,118-22.5500E,64,32.2453
227,2012/2/28,11:31:00,00-23.8000N,118-22.7500E,64,32.2416
228,2012/2/28,11:32:00,00-23.8900N,118-22.9400E,63,32.2441
229,2012/2/28,11:33:00,00-23.9800N,118-23.1300E,64,32.2402
230,2012/2/28,11:34:00,00-24.0700N,118-23.3200E,63,32.2391
231,2012/2/28,11:35:00,00-24.1700N,118-23.5100E,63,32.2368
232,2012/2/28,11:36:00,00-24.2700N,118-23.7000E,63,32.2357
233,2012/2/28,11:37:00,00-24.3600N,118-23.9000E,63,32.2351
234,2012/2/28,11:38:00,00-24.4600N,118-24.0900E,63,32.2342
235,2012/2/28,11:39:00,00-24.5500N,118-24.2800E,63,32.2325
236,2012/2/28,11:40:00,00-24.6500N,118-24.4700E,64,32.2324
237,2012/2/28,11:41:00,00-24.7400N,118-24.6600E,64,32.232
238,2012/2/28,11:42:00,00-24.8300N,118-24.8500E,64,32.2301
239,2012/2/28,11:43:00,00-24.9200N,118-25.0400E,64,32.2272
240,2012/2/28,11:44:00,00-25.0100N,118-25.2400E,64,32.2274
241,2012/2/28,11:45:00,00-25.1100N,118-25.4300E,64,32.2257
242,2012/2/28,11:46:00,00-25.2100N,118-25.6400E,64,32.226
243,2012/2/28,11:47:00,00-25.3000N,118-25.8300E,64,32.2253
244,2012/2/28,11:48:00,00-25.3900N,118-26.0200E,65,32.2263
245,2012/2/28,11:49:00,00-25.4800N,118-26.2100E,64,32.221
246,2012/2/28,11:50:00,00-25.5700N,118-26.4100E,64,32.2238
247,2012/2/28,11:51:00,00-25.6600N,118-26.6000E,64,32.2274
248,2012/2/28,11:52:00,00-25.7500N,118-26.7900E,63,32.2292
249,2012/2/28,11:53:00,00-25.8500N,118-26.9800E,64,32.2331
250,2012/2/28,11:54:00,00-25.9400N,118-27.1700E,64,32.2419
251,2012/2/28,11:55:00,00-26.0300N,118-27.3700E,64,32.2528
252,2012/2/28,11:56:00,00-26.1200N,118-27.5600E,64,32.2568
253,2012/2/28,11:57:00,00-26.2100N,118-27.7500E,65,32.262
254,2012/2/28,11:58:00,00-26.3000N,118-27.9400E,64,32.2777
255,2012/2/28,11:59:00,00-26.3900N,118-28.1300E,64,32.2812
256,2012/2/28,12:00:00,00-26.4800N,118-28.3300E,65,32.2794
257,2012/2/28,12:01:00,00-26.5700N,118-28.5200E,65,32.2961
258,2012/2/28,12:02:00,00-26.6600N,118-28.7100E,65,32.3006
259,2012/2/28,12:03:00,00-26.7500N,118-28.9100E,66,32.3025
260,2012/2/28,12:04:00,00-26.8300N,118-29.1100E,66,32.296
261,2012/2/28,12:05:00,00-26.9200N,118-29.3100E,66,32.289
262,2012/2/28,12:06:00,00-27.0100N,118-29.5000E,65,32.2904
263,2012/2/28,12:07:00,00-27.1000N,118-29.6900E,63,32.2951
264,2012/2/28,12:08:00,00-27.2100N,118-29.9000E,61,32.2694
265,2012/2/28,12:09:00,00-27.3200N,118-30.0800E,60,32.2786
266,2012/2/28,12:10:00,00-27.4200N,118-30.2700E,61,32.2856
267,2012/2/28,12:11:00,00-27.5300N,118-30.4600E,61,32.281
268,2012/2/28,12:12:00,00-27.6300N,118-30.6500E,61,32.2794
269,2012/2/28,12:13:00,00-27.7300N,118-30.8400E,61,32.2787
270,2012/2/28,12:14:00,00-27.8300N,118-31.0300E,62,32.2752
271,2012/2/28,12:15:00,00-27.9400N,118-31.2300E,61,32.2769
272,2012/2/28,12:16:00,00-28.0400N,118-31.4100E,61,32.2811
273,2012/2/28,12:17:00,00-28.1500N,118-31.6100E,60,32.2811
274,2012/2/28,12:18:00,00-28.2500N,118-31.7900E,60,32.2824
275,2012/2/28,12:19:00,00-28.3700N,118-31.9800E,59,32.2844
276,2012/2/28,12:20:00,00-28.4700N,118-32.1700E,59,32.2864
277,2012/2/28,12:21:00,00-28.5800N,118-32.3600E,59,32.2883
278,2012/2/28,12:22:00,00-28.6900N,118-32.5400E,59,32.2926
279,2012/2/28,12:23:00,00-28.8000N,118-32.7300E,59,32.3002
280,2012/2/28,12:24:00,00-28.9100N,118-32.9100E,59,32.3097
281,2012/2/28,12:25:00,00-29.0200N,118-33.1000E,59,32.3154
282,2012/2/28,12:26:00,00-29.1300N,118-33.2800E,59,32.3218
283,2012/2/28,12:27:00,00-29.2300N,118-33.4600E,59,32.3303
284,2012/2/28,12:28:00,00-29.3400N,118-33.6500E,59,32.3396
285,2012/2/28,12:29:00,00-29.4500N,118-33.8300E,59,32.3558
286,2012/2/28,12:30:00,00-29.5600N,118-34.0300E,59,32.3814
287,2012/2/28,12:31:00,00-29.6700N,118-34.2100E,59,32.4008
288,2012/2/28,12:32:00,00-29.7800N,118-34.3900E,58,32.408
289,2012/2/28,12:33:00,00-29.8900N,118-34.5700E,59,32.4086
290,2012/2/28,12:34:00,00-30.0000N,118-34.7500E,59,32.4154
291,2012/2/28,12:35:00,00-30.1000N,118-34.9300E,58,32.4361
292,2012/2/28,12:36:00,00-30.2100N,118-35.1100E,58,32.4585
293,2012/2/28,12:37:00,00-30.3200N,118-35.2900E,58,32.4745
294,2012/2/28,12:38:00,00-30.4300N,118-35.4700E,58,32.4847
295,2012/2/28,12:39:00,00-30.5400N,118-35.6400E,58,32.4881
296,2012/2/28,12:40:00,00-30.6500N,118-35.8300E,58,32.4926
297,2012/2/28,12:41:00,00-30.7600N,118-36.0000E,58,32.4968
298,2012/2/28,12:42:00,00-30.8600N,118-36.1800E,59,32.4974
299,2012/2/28,12:43:00,00-30.9700N,118-36.3600E,59,32.5018
300,2012/2/28,12:44:00,00-31.0800N,118-36.5400E,59,32.51
301,2012/2/28,12:45:00,00-31.1800N,118-36.7200E,59,32.5138
302,2012/2/28,12:46:00,00-31.2900N,118-36.9000E,61,32.5174
303,2012/2/28,12:47:00,00-31.3800N,118-37.0800E,62,32.5211
304,2012/2/28,12:48:00,00-31.4800N,118-37.2600E,62,32.5204
305,2012/2/28,12:49:00,00-31.5800N,118-37.4500E,62,32.5155
306,2012/2/28,12:50:00,00-31.6800N,118-37.6300E,62,32.5135
307,2012/2/28,12:51:00,00-31.7800N,118-37.8300E,61,32.5092
308,2012/2/28,12:52:00,00-31.8800N,118-38.0100E,62,32.5115
309,2012/2/28,12:53:00,00-31.9700N,118-38.1900E,62,32.5132
310,2012/2/28,12:54:00,00-32.0700N,118-38.3700E,62,32.514
311,2012/2/28,12:55:00,00-32.1700N,118-38.5600E,62,32.5139
312,2012/2/28,12:56:00,00-32.2600N,118-38.7300E,61,32.508
313,2012/2/28,12:57:00,00-32.3600N,118-38.9100E,61,32.506
314,2012/2/28,12:58:00,00-32.4600N,118-39.0900E,60,32.504
315,2012/2/28,12:59:00,00-32.5600N,118-39.2600E,59,32.5038
316,2012/2/28,13:00:00,00-32.6600N,118-39.4300E,59,32.5049
317,2012/2/28,13:01:00,00-32.7500N,118-39.6000E,61,32.5128
318,2012/2/28,13:02:00,00-32.8500N,118-39.7700E,62,32.5176
319,2012/2/28,13:03:00,00-32.9400N,118-39.9500E,63,32.5269
320,2012/2/28,13:04:00,00-33.0300N,118-40.1300E,63,32.5372
321,2012/2/28,13:05:00,00-33.1200N,118-40.3000E,63,32.5413
322,2012/2/28,13:06:00,00-33.2100N,118-40.4900E,63,32.5458
323,2012/2/28,13:07:00,00-33.3000N,118-40.6700E,62,32.5537
324,2012/2/28,13:08:00,00-33.4000N,118-40.8500E,62,32.5639
325,2012/2/28,13:09:00,00-33.5000N,118-41.0200E,61,32.5713
326,2012/2/28,13:10:00,00-33.5900N,118-41.2000E,60,32.5766
327,2012/2/28,13:11:00,00-33.7000N,118-41.3700E,60,32.5808
328,2012/2/28,13:12:00,00-33.7900N,118-41.5500E,60,32.5869
329,2012/2/28,13:13:00,00-33.9000N,118-41.7400E,61,32.5918
330,2012/2/28,13:14:00,00-34.0000N,118-41.9200E,61,32.5948
331,2012/2/28,13:15:00,00-34.0900N,118-42.0900E,61,32.6025
332,2012/2/28,13:16:00,00-34.1900N,118-42.2700E,61,32.6112
333,2012/2/28,13:17:00,00-34.2900N,118-42.4500E,61,32.6182
334,2012/2/28,13:18:00,00-34.3900N,118-42.6300E,59,32.6245
335,2012/2/28,13:19:00,00-34.5000N,118-42.8000E,56,32.6316
336,2012/2/28,13:20:00,00-34.6200N,118-42.9700E,54,32.6403
337,2012/2/28,13:21:00,00-34.7400N,118-43.1300E,53,32.6442
338,2012/2/28,13:22:00,00-34.8700N,118-43.2900E,51,32.6461
339,2012/2/28,13:23:00,00-35.0000N,118-43.4500E,49,32.6486
340,2012/2/28,13:24:00,00-35.1300N,118-43.6000E,49,32.6503
341,2012/2/28,13:25:00,00-35.2700N,118-43.7600E,48,32.6554
342,2012/2/28,13:26:00,00-35.4000N,118-43.9100E,48,32.6607
343,2012/2/28,13:27:00,00-35.5400N,118-44.0600E,48,32.6646
344,2012/2/28,13:28:00,00-35.6800N,118-44.2200E,48,32.67
345,2012/2/28,13:29:00,00-35.8200N,118-44.3700E,48,32.6758
346,2012/2/28,13:30:00,00-35.9500N,118-44.5200E,47,32.6802
347,2012/2/28,13:31:00,00-36.0900N,118-44.6800E,48,32.685
348,2012/2/28,13:32:00,00-36.2300N,118-44.8300E,48,32.6893
349,2012/2/28,13:33:00,00-36.3700N,118-44.9900E,48,32.6987
350,2012/2/28,13:34:00,00-36.5200N,118-45.1600E,49,32.7077
351,2012/2/28,13:35:00,00-36.6500N,118-45.3200E,49,32.7092
352,2012/2/28,13:36:00,00-36.7800N,118-45.4800E,51,32.7122
353,2012/2/28,13:37:00,00-36.9100N,118-45.6500E,55,32.7172
354,2012/2/28,13:38:00,00-37.0200N,118-45.8200E,58,32.7254
355,2012/2/28,13:39:00,00-37.1300N,118-46.0100E,60,32.7353
356,2012/2/28,13:40:00,00-37.2300N,118-46.1900E,61,32.7443
357,2012/2/28,13:41:00,00-37.3300N,118-46.3800E,62,32.7511
358,2012/2/28,13:42:00,00-37.4300N,118-46.5700E,63,32.7559
359,2012/2/28,13:43:00,00-37.5200N,118-46.7600E,62,32.7663
360,2012/2/28,13:44:00,00-37.6200N,118-46.9400E,62,32.773
361,2012/2/28,13:45:00,00-37.7200N,118-47.1300E,63,32.782
362,2012/2/28,13:46:00,00-37.8200N,118-47.3200E,62,32.792
363,2012/2/28,13:47:00,00-37.9100N,118-47.5100E,62,32.7942
364,2012/2/28,13:48:00,00-38.0100N,118-47.7000E,62,32.7931
365,2012/2/28,13:49:00,00-38.1100N,118-47.8900E,62,32.7903
366,2012/2/28,13:50:00,00-38.2100N,118-48.0700E,62,32.7875
367,2012/2/28,13:51:00,00-38.3100N,118-48.2600E,63,32.7847
368,2012/2/28,13:52:00,00-38.4000N,118-48.4500E,63,32.786
369,2012/2/28,13:53:00,00-38.5000N,118-48.6500E,63,32.7844
370,2012/2/28,13:54:00,00-38.5900N,118-48.8400E,64,32.7843
371,2012/2/28,13:55:00,00-38.6900N,118-49.0300E,64,32.7866
372,2012/2/28,13:56:00,00-38.7800N,118-49.2300E,64,32.7876
373,2012/2/28,13:57:00,00-38.8800N,118-49.4300E,65,32.79
374,2012/2/28,13:58:00,00-38.9700N,118-49.6300E,65,32.7927
375,2012/2/28,13:59:00,00-39.0600N,118-49.8300E,66,32.7921
376,2012/2/28,14:00:00,00-39.1400N,118-50.0200E,66,32.7924
377,2012/2/28,14:01:00,00-39.2300N,118-50.2200E,66,32.8087
378,2012/2/28,14:02:00,00-39.3100N,118-50.4100E,65,32.8004
379,2012/2/28,14:03:00,00-39.4000N,118-50.6000E,65,32.7919
380,2012/2/28,14:04:00,00-39.4800N,118-50.7900E,65,32.781
381,2012/2/28,14:05:00,00-39.5700N,118-50.9700E,66,32.7828
382,2012/2/28,14:06:00,00-39.6500N,118-51.1700E,66,32.7836
383,2012/2/28,14:07:00,00-39.7300N,118-51.3500E,66,32.7981
384,2012/2/28,14:08:00,00-39.8100N,118-51.5400E,66,32.8059
385,2012/2/28,14:09:00,00-39.8900N,118-51.7200E,66,32.8128
386,2012/2/28,14:10:00,00-39.9700N,118-51.9000E,66,32.8045
387,2012/2/28,14:11:00,00-40.0500N,118-52.0900E,67,32.779
388,2012/2/28,14:12:00,00-40.1300N,118-52.2700E,67,32.7681
389,2012/2/28,14:13:00,00-40.2000N,118-52.4600E,67,32.8004
390,2012/2/28,14:14:00,00-40.2800N,118-52.6400E,67,32.864
391,2012/2/28,14:15:00,00-40.3600N,118-52.8200E,67,32.9278
392,2012/2/28,14:16:00,00-40.4300N,118-53.0000E,67,32.9519
393,2012/2/28,14:17:00,00-40.5100N,118-53.1900E,66,32.9838
394,2012/2/28,14:18:00,00-40.5900N,118-53.3800E,66,32.9818
395,2012/2/28,14:19:00,00-40.6700N,118-53.5600E,66,32.9868
396,2012/2/28,14:20:00,00-40.7500N,118-53.7400E,67,32.9873
397,2012/2/28,14:21:00,00-40.8300N,118-53.9200E,66,32.9872
398,2012/2/28,14:22:00,00-40.9000N,118-54.1000E,66,32.9883
399,2012/2/28,14:23:00,00-40.9800N,118-54.2700E,66,32.9896
400,2012/2/28,14:24:00,00-41.0600N,118-54.4400E,65,32.9838
401,2012/2/28,14:25:00,00-41.1400N,118-54.6200E,65,32.9763
402,2012/2/28,14:26:00,00-41.2100N,118-54.8000E,65,32.9664
403,2012/2/28,14:27:00,00-41.2900N,118-54.9800E,65,32.9632
404,2012/2/28,14:28:00,00-41.3700N,118-55.1500E,65,32.9594
405,2012/2/28,14:29:00,00-41.4500N,118-55.3200E,66,32.9632
406,2012/2/28,14:30:00,00-41.5300N,118-55.5000E,66,32.9731
407,2012/2/28,14:31:00,00-41.6000N,118-55.6700E,65,32.9533
408,2012/2/28,14:32:00,00-41.6800N,118-55.8500E,65,32.9418
409,2012/2/28,14:33:00,00-41.7600N,118-56.0200E,66,32.948
410,2012/2/28,14:34:00,00-41.8400N,118-56.1900E,66,32.9493
411,2012/2/28,14:35:00,00-41.9200N,118-56.3600E,65,32.9325
412,2012/2/28,14:36:00,00-42.0000N,118-56.5400E,65,32.943
413,2012/2/28,14:37:00,00-42.0700N,118-56.7200E,66,32.921
414,2012/2/28,14:38:00,00-42.1500N,118-56.8900E,66,32.9113
415,2012/2/28,14:39:00,00-42.2200N,118-57.0600E,66,32.9067
416,2012/2/28,14:40:00,00-42.3100N,118-57.2500E,65,32.9189
417,2012/2/28,14:41:00,00-42.3900N,118-57.4100E,63,32.9383
418,2012/2/28,14:42:00,00-42.4700N,118-57.5800E,62,32.9326
419,2012/2/28,14:43:00,00-42.5600N,118-57.7500E,62,32.9393
420,2012/2/28,14:44:00,00-42.6400N,118-57.9100E,62,32.9421
421,2012/2/28,14:45:00,00-42.7300N,118-58.0800E,63,32.942
422,2012/2/28,14:46:00,00-42.8100N,118-58.2500E,63,32.9418
423,2012/2/28,14:47:00,00-42.9000N,118-58.4200E,60,32.9329
424,2012/2/28,14:48:00,00-43.0000N,118-58.5800E,58,32.9147
425,2012/2/28,14:49:00,00-43.1000N,118-58.7300E,54,32.8776
426,2012/2/28,14:50:00,00-43.2200N,118-58.8800E,53,32.8543
427,2012/2/28,14:51:00,00-43.3300N,118-59.0200E,53,32.8553
428,2012/2/28,14:52:00,00-43.4400N,118-59.1700E,50,32.8731
429,2012/2/28,14:53:00,00-43.5600N,118-59.3000E,47,32.8428
430,2012/2/28,14:54:00,00-43.6900N,118-59.4400E,47,32.8565
431,2012/2/28,14:55:00,00-43.8100N,118-59.5700E,44,32.9078
432,2012/2/28,14:56:00,00-43.9500N,118-59.7000E,42,32.8787
433,2012/2/28,14:57:00,00-44.0800N,118-59.8200E,42,32.8181
434,2012/2/28,14:58:00,00-44.2200N,118-59.9400E,40,32.8294
435,2012/2/28,14:59:00,00-44.3600N,119-00.0500E,38,32.8304
436,2012/2/28,15:00:00,00-44.5000N,119-00.1600E,38,32.8154
437,2012/2/28,15:01:00,00-44.6600N,119-00.2900E,37,32.8132
438,2012/2/28,15:02:00,00-44.8100N,119-00.4000E,37,32.8178
439,2012/2/28,15:03:00,00-44.9600N,119-00.5100E,37,32.8704
440,2012/2/28,15:04:00,00-45.1000N,119-00.6200E,37,32.9498
441,2012/2/28,15:05:00,00-45.2500N,119-00.7300E,37,32.956
442,2012/2/28,15:06:00,00-45.3900N,119-00.8400E,37,32.9343
443,2012/2/28,15:07:00,00-45.5400N,119-00.9500E,37,32.9181
444,2012/2/28,15:08:00,00-45.6900N,119-01.0700E,36,32.8493
445,2012/2/28,15:09:00,00-45.8400N,119-01.1800E,36,32.8366
446,2012/2/28,15:10:00,00-45.9800N,119-01.2900E,36,32.8337
447,2012/2/28,15:11:00,00-46.1300N,119-01.4000E,36,32.8374
448,2012/2/28,15:12:00,00-46.2800N,119-01.5000E,36,32.8338
449,2012/2/28,15:13:00,00-46.4300N,119-01.6100E,36,32.839
450,2012/2/28,15:14:00,00-46.5800N,119-01.7200E,36,32.8374
451,2012/2/28,15:15:00,00-46.7200N,119-01.8300E,36,32.8397
452,2012/2/28,15:16:00,00-46.8700N,119-01.9400E,36,32.8456
453,2012/2/28,15:17:00,00-47.0200N,119-02.0500E,35,32.8723
454,2012/2/28,15:18:00,00-47.1700N,119-02.1600E,36,32.8751
455,2012/2/28,15:19:00,00-47.3200N,119-02.2700E,36,32.9217
456,2012/2/28,15:20:00,00-47.4700N,119-02.3700E,36,32.9375
457,2012/2/28,15:21:00,00-47.6200N,119-02.4800E,35,32.9574
458,2012/2/28,15:22:00,00-47.7700N,119-02.5900E,34,32.9127
459,2012/2/28,15:23:00,00-47.9300N,119-02.7000E,33,32.9101
460,2012/2/28,15:24:00,00-48.0900N,119-02.8000E,33,32.9231
461,2012/2/28,15:25:00,00-48.2400N,119-02.9000E,33,32.9097
462,2012/2/28,15:26:00,00-48.4000N,119-03.0000E,33,32.9029
463,2012/2/28,15:27:00,00-48.5500N,119-03.1000E,33,32.8786
464,2012/2/28,15:28:00,00-48.7000N,119-03.2000E,33,32.8747
465,2012/2/28,15:29:00,00-48.8600N,119-03.3100E,33,32.8709
466,2012/2/28,15:30:00,00-49.0100N,119-03.4100E,33,32.8499
467,2012/2/28,15:31:00,00-49.1700N,119-03.5100E,34,32.8403
468,2012/2/28,15:32:00,00-49.3200N,119-03.6200E,35,32.8585
469,2012/2/28,15:33:00,00-49.4700N,119-03.7300E,34,32.8443
470,2012/2/28,15:34:00,00-49.6200N,119-03.8300E,34,32.8248
471,2012/2/28,15:35:00,00-49.7800N,119-03.9300E,35,32.8415
472,2012/2/28,15:36:00,00-49.9300N,119-04.0400E,34,32.8539
473,2012/2/28,15:37:00,00-50.0800N,119-04.1500E,34,32.7833
474,2012/2/28,15:38:00,00-50.2400N,119-04.2500E,34,32.7644
475,2012/2/28,15:39:00,00-50.3900N,119-04.3600E,34,32.7553
476,2012/2/28,15:40:00,00-50.5500N,119-04.4600E,33,32.6969
477,2012/2/28,15:41:00,00-50.7000N,119-04.5700E,33,32.6621
478,2012/2/28,15:42:00,00-50.8600N,119-04.6700E,34,32.6463
479,2012/2/28,15:43:00,00-51.0200N,119-04.7800E,34,32.6536
480,2012/2/28,15:44:00,00-51.1700N,119-04.8800E,34,32.638
481,2012/2/28,15:45:00,00-51.3400N,119-05.0000E,34,32.6288
482,2012/2/28,15:46:00,00-51.5000N,119-05.1100E,34,32.6556
483,2012/2/28,15:47:00,00-51.6500N,119-05.2100E,34,32.676
484,2012/2/28,15:48:00,00-51.8100N,119-05.3200E,34,32.6796
485,2012/2/28,15:49:00,00-51.9600N,119-05.4300E,33,32.6633
486,2012/2/28,15:50:00,00-52.1200N,119-05.5300E,33,32.632
487,2012/2/28,15:51:00,00-52.2800N,119-05.6400E,34,32.6234
488,2012/2/28,15:52:00,00-52.4400N,119-05.7400E,32,32.6521
489,2012/2/28,15:53:00,00-52.6000N,119-05.8400E,32,32.6667
490,2012/2/28,15:54:00,00-52.7600N,119-05.9400E,32,32.6515
491,2012/2/28,15:55:00,00-52.9200N,119-06.0400E,31,32.6534
492,2012/2/28,15:56:00,00-53.0800N,119-06.1400E,31,32.6592
493,2012/2/28,15:57:00,00-53.2400N,119-06.2400E,31,32.636
494,2012/2/28,15:58:00,00-53.4100N,119-06.3400E,31,32.6289
495,2012/2/28,15:59:00,00-53.5700N,119-06.4400E,31,32.6082
496,2012/2/28,16:00:00,00-53.7300N,119-06.5400E,32,32.5658
497,2012/2/28,16:01:00,00-53.8900N,119-06.6400E,32,32.5142
498,2012/2/28,16:02:00,00-54.0500N,119-06.7400E,32,32.4655
499,2012/2/28,16:03:00,00-54.2100N,119-06.8400E,31,32.4516
500,2012/2/28,16:04:00,00-54.3700N,119-06.9300E,31,32.4392
501,2012/2/28,16:05:00,00-54.5300N,119-07.0300E,31,32.4593
502,2012/2/28,16:06:00,00-54.7000N,119-07.1300E,31,32.508
503,2012/2/28,16:07:00,00-54.8700N,119-07.2400E,32,32.5356
504,2012/2/28,16:08:00,00-55.0300N,119-07.3400E,32,32.5671
505,2012/2/28,16:09:00,00-55.1900N,119-07.4400E,32,32.5636
506,2012/2/28,16:10:00,00-55.3500N,119-07.5400E,32,32.5358
507,2012/2/28,16:11:00,00-55.5100N,119-07.6500E,33,32.5318
508,2012/2/28,16:12:00,00-55.6700N,119-07.7500E,33,32.5288
509,2012/2/28,16:13:00,00-55.8200N,119-07.8500E,33,32.5058